GCDDG EGBJ-EGHA

Flight info

Callsign GCDDG
Flight time 0h 26m
Altitude 3000
Route VFR
Aircraft C172/L-SFG/C

Departure

Time 2026-04-26 17:11
Airport Gloucestershire Airport (EGBJ)

Arrival

Time 2026-04-26 17:37
Airport Compton Abbas Aerodrome (EGHA)
Time Latitude Longitude Altitude Speed Heading
2026-04-26 16:49 51.66966 -2.06167 431 ft 0 kts 358°
2026-04-26 17:05 51.66969 -2.06166 436 ft 0 kts 26°
2026-04-26 17:06 51.66971 -2.06157 436 ft 2 kts 99°
2026-04-26 17:06 51.66944 -2.06139 436 ft 2 kts 156°
2026-04-26 17:06 51.66940 -2.06135 436 ft 2 kts 150°
2026-04-26 17:06 51.66915 -2.06095 437 ft 7 kts 124°
2026-04-26 17:07 51.66906 -2.06076 431 ft 0 kts 135°
2026-04-26 17:07 51.66904 -2.06074 437 ft 4 kts 139°
2026-04-26 17:08 51.66854 -2.06113 435 ft 15 kts 219°
2026-04-26 17:08 51.66763 -2.06210 432 ft 13 kts 145°
2026-04-26 17:08 51.66763 -2.06089 432 ft 10 kts 88°
2026-04-26 17:08 51.66768 -2.05976 432 ft 11 kts 83°
2026-04-26 17:09 51.66785 -2.05840 430 ft 14 kts 79°
2026-04-26 17:09 51.66799 -2.05731 429 ft 16 kts 80°
2026-04-26 17:09 51.66824 -2.05478 426 ft 19 kts 84°
2026-04-26 17:09 51.66833 -2.05308 422 ft 12 kts 85°
2026-04-26 17:10 51.66849 -2.05300 415 ft 5 kts 276°
2026-04-26 17:10 51.66840 -2.05371 421 ft 19 kts 257°
2026-04-26 17:10 51.66792 -2.05838 422 ft 63 kts 262°
2026-04-26 17:10 51.66676 -2.06572 615 ft 66 kts 246°
2026-04-26 17:11 51.66481 -2.07243 804 ft 64 kts 238°
2026-04-26 17:11 51.66203 -2.07881 876 ft 76 kts 230°
2026-04-26 17:11 51.65739 -2.08434 983 ft 93 kts 186°
2026-04-26 17:11 51.65097 -2.08184 1163 ft 98 kts 161°
2026-04-26 17:12 51.63817 -2.07264 1513 ft 107 kts 154°
2026-04-26 17:12 51.63172 -2.06675 1717 ft 103 kts 148°
2026-04-26 17:13 51.62042 -2.05196 2026 ft 108 kts 135°
2026-04-26 17:13 51.61522 -2.04334 2166 ft 109 kts 134°
2026-04-26 17:13 51.60530 -2.02495 2438 ft 111 kts 128°
2026-04-26 17:14 51.60062 -2.01452 2505 ft 117 kts 127°
2026-04-26 17:14 51.59009 -1.99681 2911 ft 105 kts 139°
2026-04-26 17:14 51.58464 -1.98928 3124 ft 102 kts 140°
2026-04-26 17:15 51.57389 -1.97316 3394 ft 108 kts 145°
2026-04-26 17:15 51.56737 -1.96752 3574 ft 106 kts 157°
2026-04-26 17:15 51.56041 -1.96256 3650 ft 112 kts 155°
2026-04-26 17:16 51.55376 -1.95707 3793 ft 111 kts 153°
2026-04-26 17:16 51.54636 -1.95307 3913 ft 111 kts 166°
2026-04-26 17:16 51.53878 -1.95025 4004 ft 114 kts 168°
2026-04-26 17:16 51.53086 -1.94736 4049 ft 119 kts 168°
2026-04-26 17:17 51.52254 -1.94695 4092 ft 121 kts 187°
2026-04-26 17:17 51.51405 -1.94849 4101 ft 125 kts 187°
2026-04-26 17:17 51.50538 -1.94997 4122 ft 125 kts 186°
2026-04-26 17:17 51.49666 -1.95118 4138 ft 127 kts 185°
2026-04-26 17:18 51.48791 -1.95184 4192 ft 125 kts 184°
2026-04-26 17:18 51.47911 -1.95281 4205 ft 127 kts 183°
2026-04-26 17:18 51.47024 -1.95315 4186 ft 128 kts 181°
2026-04-26 17:18 51.46150 -1.95323 4250 ft 125 kts 182°
2026-04-26 17:19 51.44412 -1.95255 4315 ft 125 kts 178°
2026-04-26 17:19 51.43537 -1.95188 4294 ft 129 kts 178°
2026-04-26 17:19 51.42647 -1.95124 4293 ft 124 kts 179°
2026-04-26 17:20 51.41799 -1.95087 4279 ft 119 kts 180°
2026-04-26 17:20 51.41256 -1.95087 4252 ft 117 kts 181°
2026-04-26 17:20 51.40167 -1.95084 4156 ft 119 kts 179°
2026-04-26 17:20 51.39368 -1.95027 4181 ft 112 kts 176°
2026-04-26 17:21 51.38598 -1.94897 4210 ft 107 kts 171°
2026-04-26 17:21 51.37855 -1.94662 4197 ft 107 kts 168°
2026-04-26 17:21 51.37147 -1.94386 4227 ft 105 kts 166°
2026-04-26 17:21 51.36434 -1.94057 4256 ft 102 kts 164°
2026-04-26 17:22 51.35735 -1.93988 4264 ft 102 kts 189°
2026-04-26 17:22 51.35017 -1.94146 4265 ft 103 kts 185°
2026-04-26 17:22 51.34289 -1.94236 4282 ft 104 kts 184°
2026-04-26 17:22 51.33570 -1.94320 4305 ft 105 kts 182°
2026-04-26 17:23 51.32845 -1.94419 4340 ft 103 kts 184°
2026-04-26 17:23 51.32119 -1.94460 4330 ft 105 kts 180°
2026-04-26 17:23 51.31394 -1.94397 4361 ft 104 kts 175°
2026-04-26 17:23 51.30666 -1.94309 4361 ft 105 kts 178°
2026-04-26 17:24 51.29928 -1.94316 4377 ft 110 kts 182°
2026-04-26 17:24 51.29119 -1.94319 4393 ft 119 kts 186°
2026-04-26 17:24 51.28295 -1.94563 4394 ft 125 kts 189°
2026-04-26 17:24 51.27410 -1.94778 4350 ft 130 kts 189°
2026-04-26 17:25 51.26534 -1.95065 4373 ft 127 kts 192°
2026-04-26 17:25 51.25634 -1.95356 4271 ft 130 kts 190°
2026-04-26 17:25 51.24745 -1.95581 4219 ft 130 kts 187°
2026-04-26 17:25 51.23839 -1.95717 4171 ft 129 kts 186°
2026-04-26 17:26 51.23319 -1.95783 4203 ft 126 kts 182°
2026-04-26 17:26 51.22430 -1.95797 4247 ft 124 kts 182°
2026-04-26 17:26 51.21581 -1.95940 4272 ft 123 kts 187°
2026-04-26 17:26 51.20733 -1.96063 4299 ft 122 kts 181°
2026-04-26 17:27 51.19883 -1.96086 4310 ft 123 kts 180°
2026-04-26 17:27 51.19029 -1.96227 4320 ft 123 kts 190°
2026-04-26 17:27 51.18186 -1.96409 4346 ft 123 kts 186°
2026-04-26 17:27 51.17333 -1.96604 4356 ft 124 kts 192°
2026-04-26 17:28 51.16491 -1.96951 4435 ft 124 kts 194°
2026-04-26 17:28 51.15631 -1.97310 4341 ft 135 kts 194°
2026-04-26 17:28 51.14743 -1.97669 4328 ft 133 kts 195°
2026-04-26 17:28 51.13860 -1.98056 4341 ft 128 kts 195°
2026-04-26 17:29 51.12979 -1.98428 4324 ft 129 kts 194°
2026-04-26 17:29 51.12416 -1.98648 4378 ft 126 kts 193°
2026-04-26 17:29 51.11227 -1.99046 4299 ft 133 kts 191°
2026-04-26 17:29 51.10287 -1.99300 4175 ft 136 kts 188°
2026-04-26 17:30 51.09391 -1.99528 4044 ft 130 kts 190°
2026-04-26 17:30 51.08512 -1.99859 3838 ft 129 kts 194°
2026-04-26 17:30 51.07661 -2.00225 3628 ft 129 kts 194°
2026-04-26 17:30 51.06797 -2.00661 3349 ft 133 kts 195°
2026-04-26 17:31 51.05928 -2.01093 3179 ft 128 kts 198°
2026-04-26 17:31 51.05135 -2.01674 2923 ft 121 kts 213°
2026-04-26 17:31 51.04617 -2.02681 2637 ft 120 kts 245°
2026-04-26 17:31 51.04356 -2.03948 2323 ft 118 kts 256°
2026-04-26 17:32 51.04193 -2.05157 2325 ft 107 kts 256°
2026-04-26 17:32 51.03997 -2.06299 2341 ft 106 kts 251°
2026-04-26 17:32 51.03744 -2.07434 2307 ft 110 kts 249°
2026-04-26 17:32 51.03381 -2.08500 2264 ft 114 kts 232°
2026-04-26 17:33 51.02936 -2.09507 2236 ft 113 kts 232°
2026-04-26 17:33 51.02497 -2.10533 2193 ft 111 kts 236°
2026-04-26 17:33 51.02078 -2.11574 2145 ft 112 kts 236°
2026-04-26 17:34 51.01247 -2.13676 2083 ft 113 kts 236°
2026-04-26 17:34 51.00800 -2.14697 2065 ft 112 kts 230°
2026-04-26 17:34 51.00340 -2.15701 2012 ft 113 kts 232°
2026-04-26 17:34 50.99876 -2.16705 1951 ft 113 kts 232°
2026-04-26 17:35 50.99418 -2.17689 1955 ft 109 kts 233°
2026-04-26 17:35 50.98980 -2.18629 1970 ft 105 kts 232°
2026-04-26 17:35 50.98434 -2.19299 1868 ft 101 kts 186°
2026-04-26 17:35 50.97766 -2.19177 1857 ft 92 kts 169°
2026-04-26 17:36 50.97105 -2.19007 1753 ft 95 kts 169°
2026-04-26 17:36 50.96490 -2.18704 1534 ft 90 kts 150°
2026-04-26 17:36 50.96176 -2.17972 1353 ft 81 kts 80°
2026-04-26 17:36 50.96495 -2.17264 1163 ft 76 kts 79°
2026-04-26 17:37 50.96568 -2.16513 954 ft 66 kts 83°
2026-04-26 17:37 50.96662 -2.15846 835 ft 55 kts 82°
2026-04-26 17:37 50.96707 -2.15506 814 ft 10 kts 84°
2026-04-26 17:38 50.96666 -2.15570 812 ft 15 kts 253°
2026-04-26 17:38 50.96649 -2.15705 812 ft 9 kts 258°
2026-04-26 17:38 50.96632 -2.15781 810 ft 6 kts 223°
2026-04-26 17:38 50.96612 -2.15789 811 ft 3 kts 179°
2026-04-26 17:39 50.96602 -2.15788 811 ft 3 kts 171°
2026-04-26 17:39 50.96591 -2.15789 812 ft 1 kts 222°
2026-04-26 17:39 50.96590 -2.15796 812 ft 0 kts 267°
2026-04-26 17:39 50.96590 -2.15803 814 ft 0 kts 271°
2026-04-26 17:40 50.96590 -2.15806 813 ft 0 kts 266°
2026-04-26 17:43 50.96594 -2.15819 811 ft 6 kts 315°
2026-04-26 17:44 50.96632 -2.15856 810 ft 8 kts 237°
2026-04-26 17:44 50.96650 -2.15897 810 ft 7 kts 54°
2026-04-26 17:44 50.96652 -2.15886 810 ft 0 kts 76°